Location: *
(51.4660°N, 0.3360°W)
Time: 20:27:44
(UTC+00:00)

Cosmos 2333 Rocket - Pass Details

Date: 19 September 2019
Orbit: 840 x 862 km, 70.8° (Epoch: 17 October)

Event Time Altitude Azimuth Distance (km) Brightness Sun altitude
Rises 19:17:37 0° 326° (NW) 3,423 6.3 -11.6°
Reaches altitude 10° 19:20:10 10° 320° (NW) 2,487 5.6 -12.0°
Maximum altitude 19:25:32 44° 250° (WSW) 1,166 3.4 -12.8°
Drops below altitude 10° 19:30:55 10° 180° (S) 2,484 4.4 -13.5°
Sets 19:33:28 0° 174° (S) 3,419 5.1 -13.9°
